Location: Astronomy Club of Akron Observatory
(40.9700°N, 81.5606°W)
Time: 16:39:00
(UTC-04:00)

Cosmos 1441 Rocket - Visible Passes

Search period start: 27 September 2016 00:00
Search period end: 07 October 2016 00:00
Orbit: 499 x 545 km, 81.1° (Epoch: 26 September)

Date Brightness Start Highest point End Pass type
(mag) Time Alt. Az. Time Alt. Az. Time Alt. Az.
29 Sep 6.9 20:21:45 10° WNW 20:22:56 11° W 20:24:07 10° WSW visible
30 Sep 6.8 20:08:14 10° WNW 20:09:56 13° W 20:11:40 10° WSW visible
01 Oct 7.1 06:48:30 10° ESE 06:49:58 12° E 06:51:26 10° ENE visible
01 Oct 6.7 19:54:51 10° NW 19:56:57 15° W 19:59:03 10° WSW visible
02 Oct 7.4 06:36:17 10° E 06:36:59 10° E 06:37:41 10° ENE visible
02 Oct 6.6 19:41:33 10° NW 19:43:57 16° W 19:46:21 10° SW visible
03 Oct 6.5 19:28:18 10° NW 19:30:57 18° W 19:33:36 10° SW visible
